Tracking 25701 objects as of 3-Jul-2022
HD Live streaming from Space Station
objects crossing your sky now

FENGYUN 1C DEB

Track FENGYUN 1C DEB now!
10-day predictions


NORAD ID: 30680
Int'l Code: 1999-025AQN
Perigee: 833.4 km
Apogee: 1,375.6 km
Inclination: 99.5 °
Period: 107.2 minutes
Semi major axis: 7475 km
RCS: 0.0144 m2 (small)
Launch date: May 10, 1999
Source: People's Republic of China (PRC)
Launch site: Taiyaun Space Center, China (TSC)

Note: This is SATELLITE DEBRIS
aabbcc
Your satellite tracking list
Your tracking list is empty




NASA's NSSDC Master Catalog

Two Line Element Set (TLE):
1 30680U 99025AQN 22183.86486512 -.00001837  00000-0 -21250-2 0  9991
2 30680  99.5328 258.2850 0362675  68.7957 295.1515 13.43207904752809
Source of the keplerian elements: AFSPC